Location: Unspecified
(34.4950°S, 58.5160°W)
Time: 18:27:30
(UTC+00:00)

BlueWalker 3 - Pass Details

Date: 18 February 2026
Orbit: 451 x 458 km, 53.2° (Epoch: 6 March)

Event Time Altitude Azimuth Distance (km) Brightness Sun altitude
Rises 23:32:25 0° 304° (NW) 2,460 6.0 -10.4°
Reaches altitude 10° 23:34:35 10° 299° (WNW) 1,594 5.1 -10.8°
Maximum altitude 23:38:05 50° 222° (SW) 597 2.7 -11.4°
Drops below altitude 10° 23:41:38 10° 145° (SE) 1,616 4.4 -12.1°
Sets 23:43:50 0° 140° (SE) 2,498 5.3 -12.5°
